Regional Weather Roundup
Issued by NWS

Home | Current Version | Previous Version | Text Only | Print | Product List | Glossary On
Versions: 1 2 3 4 5 6 7 8 9 10 11 12 13 14 15 16 17 18 19 20 21 22 23 24 25 26 27 28 29 30 31 32 33 34 35 36 37 38 39 40 41 42 43 44 45 46 47 48 49 50
000
ASUS43 KMKX 230259
RWRWI

WISCONSIN REGIONAL WEATHER ROUNDUP
NATIONAL WEATHER SERVICE MILWAUKEE/SULLIVAN WI
900 PM CST MON JAN 22 2018

NOTE: "FAIR" INDICATES FEW OR NO CLOUDS BELOW 12,000 FEET WITH NO
SIGNIFICANT WEATHER AND/OR OBSTRUCTIONS TO VISIBILITY.

WIZ001-002-006>008-014>016-023>028-230400-
NORTHWEST WISCONSIN

CITY           SKY/WX    TMP DP  RH WIND       PRES   REMARKS
SUPERIOR ARPT  CLOUDY    26  18  72 N14G20    29.88S WCI  14
ASHLAND        LGT SNOW  23  20  88 NE23G32   29.84S FOG     WCI   7
HAYWARD        FLURRIES  24  19  81 N14G30    29.75S WCI  12
SIREN          CLOUDY    27  21  79 NE18G26   29.79S WCI  14
CUMBERLAND     CLOUDY    25  21  86 N20G30    29.71R WCI  11
RICE LAKE      CLOUDY    26  23  89 N20G25    29.71S WCI  12
CHETEK         LGT SNOW  27  24  90 N9G16     29.70R WCI  17
LADYSMITH        N/A     27  24  87 N16G25    29.68R WCI  15
EAU CLAIRE     LGT SNOW  27  26  96 NE12G21   29.67R VSB 1   WCI  17
MENOMONIE      LGT SNOW  28  27  93 N12       29.69R WCI  18
NEW RICHMOND   CLOUDY    26  23  89 N16G22    29.74R WCI  13
OSCEOLA        LGT SNOW  27  23  85 N17G23    29.78R WCI  14
$$

WIZ003>005-009-010-017-018-230400-
NORTH CENTRAL WISCONSIN

CITY           SKY/WX    TMP DP  RH WIND       PRES   REMARKS
MANITOWISH WTR   N/A     22  22  99 N14G26    29.66F WCI   9
ARBOR VITAE    LGT SNOW  24  22  90 N20G25    29.61F WCI  10
WOODRUFF       LGT SNOW  24  22  90 N20G25    29.61F WCI  10
RHINELANDER    LGT SNOW  25  23  92 NE7       29.62R FOG     WCI  17
EAGLE RIVER    CLOUDY    23  22  96 NE18G24   29.61F WCI   9
LAND O LAKES   CLOUDY    23  21  91 N21G31    29.64F WCI   8
PHILLIPS       CLOUDY    23  21  92 N15G24    29.64R WCI  10
TOMAHAWK       LGT SNOW  25  22  89 NE8       29.64R WCI  16
MEDFORD        LGT SNOW  26  24  94 N16       29.60F WCI  14
MERRILL        LGT SNOW  28  25  91 NE9       29.62S WCI  19
$$

WIZ029-030-035-036-043>047-230400-
CENTRAL WISCONSIN

CITY           SKY/WX    TMP DP  RH WIND       PRES   REMARKS
WAUSAU         CLOUDY    28  25  88 N9        29.57S WCI  19
MOSINEE        NOT AVBL
MARSHFIELD     CLOUDY    29  27  92 NE13      29.57R WCI  19
STEVENS POINT  CLOUDY    28  27  96 NE16      29.57S WCI  17
WAUPACA        CLOUDY    32  28  86 NE13G23   29.55F WCI  22
WAUTOMA        CLOUDY    30  28  92 N14G22    29.53S WCI  19
WISC RAPIDS    NOT AVBL
CAMP DOUGLAS   NOT AVBL
$$

WIZ011>013-019>022-031-037>040-048>050-230400-
NORTHEAST WISCONSIN

CITY           SKY/WX    TMP DP  RH WIND       PRES   REMARKS
ANTIGO         LGT SNOW  26  25  94 NE18      29.56F WCI  13
SHAWANO        CLOUDY    32  28  85 NE16      29.56F WCI  21
OCONTO         CLOUDY    29  28  93 NE10G18   29.56F WCI  20
STURGEON BAY   CLOUDY    31  30  96 N17       29.52F FOG     WCI  19
GREEN BAY      CLOUDY    31  28  89 NE18G30   29.54S WCI  19
MANITOWOC      MIX PCPN  33  32  96 N14G23    29.50F FOG     WCI  23
APPLETON       CLOUDY    30  30 100 N15G24    29.52F WCI  19
CLINTONVILLE   CLOUDY    30  27  86 NE15      29.57S WCI  19
OSHKOSH        CLOUDY    31  29  92 NE18G29   29.50F WCI  19
$$

WIZ032>034-041-042-053>061-230400-
SOUTHWEST WISCONSIN

CITY           SKY/WX    TMP DP  RH WIND       PRES   REMARKS
LA CROSSE      MIX PCPN  34  33  96 N7        29.59R FOG     WCI  28
SPARTA         CLOUDY    32  30  93 NE14      29.59R WCI  22
VIROQUA        CLOUDY    32  32 100 NE13      29.53S WCI  22
BOSCOBEL       CLOUDY    35 N/A N/A NE6       29.55R WCI  30
PRAIRIE DU CHI CLOUDY    35  32  88 N3        29.54R
PLATTEVILLE    CLOUDY    35  35 100 NE8       29.49F WCI  29
$$

WIZ056-057-062-063-064-067-068-230400-
SOUTH CENTRAL WISCONSIN

CITY           SKY/WX    TMP DP  RH WIND       PRES   REMARKS
REEDSBURG      CLOUDY    32  32 100 NE7       29.52R WCI  25
BARABOO/DELLS  CLOUDY    31  30  96 N9G17     29.51R WCI  23
LONE ROCK      NOT AVBL
MINERAL POINT  CLOUDY    34  34 100 NE10      29.49F WCI  26
MADISON        FLURRIES  33  31  92 NE5       29.52R WCI  29
MIDDLETON      CLOUDY    34  34  99 CALM      29.53R
WATERTOWN      MIX PCPN  33  33 100 CALM      29.47R
MONROE         LGT RAIN  34  32  93 NW3       29.50R
JANESVILLE     LGT RAIN  37  37 100 W8        29.50R WCI  31
$$

WIZ051-052-058>065-066-070>072-230400-
SOUTHEAST WISCONSIN

CITY           SKY/WX    TMP DP  RH WIND       PRES   REMARKS
MILWAUKEE      LGT RAIN  37  36  96 N15       29.45F WCI  28
WAUKESHA       CLOUDY    34  34 100 NE6       29.47S WCI  29
MILWAUKEE/TIMM LGT RAIN  36  34  93 NW3       29.49R FOG
RACINE         CLOUDY    37  37 100 VRB3      29.46R
BURLINGTON     MIX PCPN  37  36  96 NW9       29.43F WCI  30
KENOSHA        CLOUDY    41  39  93 S8        29.45R
FOND DU LAC    CLOUDY    32  29  88 N17G25    29.48F WCI  21
SHEBOYGAN      CLOUDY    34  34 100 N13G18    29.49S FOG     WCI  25
WEST BEND      LGT RAIN  34  34 100 N13       29.46F WCI  25
JUNEAU         CLOUDY    31  31  99 N15       29.48S FOG     WCI  20
$$

LSZ147-162-230400-
LAKE SUPERIOR

STATION/POSITION TIME  TEMP    WIND        PRES    WAVE
                       AIR SEA DIR/SP/G            HT/PER
                 (UTC) (F)     (DEG/KT/KT) (MB)    (FT/S)
DEVILS ISLAND    0200   24      40/ 24/ 27 1013.1F
SAXON HARBOR     0240   26      30/ 25/ 31 1009.5F
$$

LMZ867-665-643>646-230400-
LAKE MICHIGAN

STATION/POSITION TIME  TEMP    WIND        PRES    WAVE
                       AIR SEA DIR/SP/G            HT/PER
                 (UTC) (F)     (DEG/KT/KT) (MB)    (FT/S)
NORTHPORT PIER   0240   30      30/  7/ 15 1001.7F
KEWAUNEE LAKESHO 0230   33      20/ 13/ 20  998.9
SHEBOYGAN LAKESH 0200   34     350/ 21/ 25  998.7F
PORT WASHINGTON  0230   36     360/  6/ 12  999.0S
MILWAUKEE LAKESH 0230   35     280/  7/  9   N/A
KENOSHA   LAKESH 0200   40     350/  3/  5  997.3
$$

TC  - TEMPERATURE IN CELSIUS
VSB - VISIBILITY IN STATUTE MILES
WCI - WIND CHILL INDEX
HX  - HEAT INDEX





USA.gov is the U.S. government's official web portal to all federal, state and local government web resources and services.